Regional Weather Roundup
Issued by NWS

Home | Current Version | Previous Version | Graphics & Text | Print | Product List | Glossary On
Versions: 1 2 3 4 5 6 7 8 9 10 11 12 13 14 15 16 17 18 19 20 21 22 23 24 25 26 27 28 29 30 31 32 33 34 35 36 37 38 39 40 41 42 43 44 45 46 47 48 49 50
009
ASUS43 KLOT 212208
RWRIL

ILLINOIS REGIONAL WEATHER ROUNDUP
NATIONAL WEATHER SERVICE CHICAGO/ROMEOVILLE IL
400 PM CST SUN JAN 21 2018

NOTE: "FAIR" INDICATES FEW OR NO CLOUDS BELOW 12,000 FEET WITH NO
SIGNIFICANT WEATHER AND/OR OBSTRUCTIONS TO VISIBILITY.

* THESE STATIONS ARE NOT UNDER NWS QUALITY CONTROL. THEY ALSO MAY NOT
  REPORT WEATHER SUCH AS PRECIPITATION OR FOG.

ILZ001-002-007-009-015-016-024-212300-
NORTHWEST ILLINOIS

CITY           SKY/WX    TMP DP  RH WIND       PRES   REMARKS
MOLINE         CLOUDY    45  43  93 E8        29.82R FOG
STERLING*        N/A    N/A N/A N/A MISG        N/A
SAVANNA*       FOG       40  39  99 E8        29.85F VSB 3/4
$$

ILZ003-004-008-010-011-017-018-212300-
NORTH CENTRAL ILLINOIS

CITY           SKY/WX    TMP DP  RH WIND       PRES   REMARKS
ROCKFORD       FOG       39  38  96 E7        29.90R VSB 1/4 WCI  34
FREEPORT*      FOG       38  38 100 E7        29.89R VSB 1/4 WCI  32
ROCHELLE*      FOG       40  40 100 E6        29.87F VSB 1/4
DE KALB*       DRZL/FOG  40  40  99 E6        29.89S VSB<1/4
$$

ILZ005-006-012>014-019>023-212300-
NORTHEAST ILLINOIS

CITY           SKY/WX    TMP DP  RH WIND       PRES   REMARKS
CHICAGO-OHARE  FOG       44  41  89 E6        29.89F VSB 1/4
CHICAGO-MIDWAY DRIZZLE   44  42  93 E6        29.90S FOG
AURORA         FOG       42  42 100 E6        29.88S VSB<1/4
LANSING*       DRIZZLE   45  45 100 CALM      29.91S
JOLIET*        CLOUDY    45  45 100 E6        29.89S FOG
WAUKEGAN       FOG       36  36 100 NE3       29.91R VSB 1
DUPAGE AIRPORT FOG       42  42 100 E6        29.88S VSB<1/4
KANKAKEE*      FOG      N/A N/A N/A SE5       29.91S VSB<1/4
WHEELING       CLOUDY    43  41  93 VRB3      29.91S FOG
MORRIS*        FOG       44  44  99 E3        29.88S VSB 1/2
ROMEOVILLE*    CLOUDY    44  43  99 SE6       29.89S FOG
NORTHERLY ISL    N/A     36  34  92 CALM        N/A
$$

LMZ740>746-212300-
SOUTHERN LAKE MICHIGAN

STATION/POSITION SKY/WX   TEMP    WIND        PRES    VSBY  WAVE
                          AIR SEA DIR/SP/G                  HT/PER
                          (F)     (DEG/KT/KT) (MB)    (MI)  (FT/S)
HARRISON CRIB              40     110/ 11/ 12   N/A
BURNHAM HARBOR             36      CALM  /  2   N/A
CALUMET HARBOR             36      20/  2/  3 1012.3S
BURNS HARBOR               45     180/  8/ 13 1013.9R
MICHIGAN CITY              42     140/  3/  4   N/A
$$

ILZ025>027-034>036-040-047-049-050-058-095>099-212300-
WEST-CENTRAL ILLINOIS

CITY           SKY/WX    TMP DP  RH WIND       PRES   REMARKS
QUINCY         CLOUDY    61  52  72 SE8       29.77S
GALESBURG*     CLOUDY    50  48  92 SE5       29.83R
MACOMB*        CLOUDY    56  51  83 SE8       29.82S
JACKSONVILLE*  CLOUDY    57  51  80 SE12      29.81F
PITTSFIELD*    MOSUNNY   62  54  74 E9        29.79S
$$

ILZ028>032-037-038-041>044-048-051>054-059>061-212300-
CENTRAL ILLINOIS

CITY           SKY/WX    TMP DP  RH WIND       PRES   REMARKS
PONTIAC        FOG       49  48  97 SE7       29.88S VSB 1/4
BLOOMINGTON    MOCLDY    52  51  97 S10       29.87F FOG
DECATUR        CLOUDY    55  53  93 S12       29.88F
PEORIA         CLOUDY    54  50  86 CALM      29.83F FOG
LACON*         CLOUDY    49  49 100 SE3       29.84S FOG
LINCOLN*       CLOUDY    57  55  91 S17       29.86R
SPRINGFIELD    CLOUDY    57  53  86 SE14      29.84F
TAYLORVILLE    CLOUDY    55  52  92 S15G21    29.87S
$$

ILZ033-039-045-046-055>057-062-063-212300-
EAST-CENTRAL ILLINOIS

CITY           SKY/WX    TMP DP  RH WIND       PRES   REMARKS
CHAMPAIGN      CLOUDY    50  50 100 S15       29.90S FOG
DANVILLE*      FOG       48  48 100 S14       29.90S VSB 1/4
RANTOUL*       FOG       50  50  99 SE8       29.90S VSB 1/4
MATTOON        LGT RAIN  49  49 100 S14       29.91S VSB 1/2
PARIS*         CLOUDY    47  47 100 S12       29.95S FOG
$$

ILZ079-100>102-212300-
SOUTHWEST ILLINOIS

CITY           SKY/WX    TMP DP  RH WIND       PRES   REMARKS
ALTON          PTSUNNY   61  55  82 SE13      29.85R
BELLEVILLE     CLOUDY    57  52  85 S17       29.86S
CAHOKIA*       PTSUNNY   62  53  72 SE14      29.84S
SPARTA*        CLOUDY    53  53 100 S14G22    29.91S
$$

ILZ064>066-069>071-074>076-080>082-084>086-088>090-092>094-212300-
SOUTH-CENTRAL ILLINOIS

CITY           SKY/WX    TMP DP  RH WIND       PRES   REMARKS
CARBONDALE     CLOUDY    54  54 100 S13       29.94R FOG
CAIRO*         PTSUNNY   56  53  89 S5        29.96S
EFFINGHAM*     DRZL/FOG  50  50 100 SE8       29.95S VSB 3/4
MARION         CLOUDY    54  54 100 S17       29.96R FOG
MT. VERNON     CLOUDY    53  52  96 S13       29.94S FOG
CENTRALIA*     CLOUDY    54  53  97 S9        29.92S FOG
SALEM*         CLOUDY    54  52  94 S8        29.93R FOG
METROPOLIS*    CLOUDY    59  54  83 S6        29.98S
$$

ILZ067-068-072-073-078-083-087-091-212300-
SOUTHEAST ILLINOIS

CITY           SKY/WX    TMP DP  RH WIND       PRES   REMARKS
LAWRENCEVILLE  FOG       47  46  97 S12       29.98S VSB 1/4
FLORA*         FOG       52  51  97 S9        29.95S VSB 1/2
FAIRFIELD*     CLOUDY    51  51 100 S7        29.95R FOG
HARRISBURG*    CLOUDY    55  54  95 S13       29.97R
ROBINSON*      FOG       47  47 100 S10       29.98R VSB 1
CARMI*         CLOUDY    47  47  99 S7        29.97S FOG
$$

ABBREVIATIONS USED IN REMARKS
   TC - TEMPERATURE IN CELSIUS
  WCI - WIND CHILL INDEX
   HX - HEAT INDEX
  VSB - VISIBILITY
$$





USA.gov is the U.S. government's official web portal to all federal, state and local government web resources and services.